Current Version              Previous Version:    01  02  03  04  05  06  07  08  09  10  11  12  13  14  15  16  17  18  19  20  21  22  23  24  25  26  27  28  29  30  
   31  32  33  34  35  36  37  38  39  40  41  42  43  44  45  46  47  48  49  50  51  52  53  54  55  56  57  58  59  60  

[Printable]
323
ASUS44 KFWD 301501
RWRTX
NORTH TEXAS HOURLY WEATHER ROUNDUP
NATIONAL WEATHER SERVICE FORT WORTH TX
1000 AM CDT WED JUL 30 2014

NOTE: "FAIR" INDICATES FEW OR NO CLOUDS BELOW 12,000 FEET WITH NO
SIGNIFICANT WEATHER AND/OR OBSTRUCTIONS TO VISIBILITY.

TXZ118-119-301600-
DALLAS/FORT WORTH METROPLEX

CITY           SKY/WX    TMP DP  RH WIND       PRES   REMARKS
DFW AIRPORT    LGT RAIN  75  73  93 E10       30.06F FOG
DALLAS LOVE    LGT RAIN  76  73  91 E10       30.08S FOG
FTW MEACHAM    CLOUDY    79  72  79 SE12      30.05S
DAL-EXECUTIVE  LGT RAIN  76  72  87 E9        30.08S FOG
FTW-ALLIANCE   CLOUDY    75  72  90 E9        30.05F
FTW-NAS-JRB    CLOUDY    81  69  67 SE12      30.09S
FTW-SPINKS     PTSUNNY   75  72  88 E6        30.08S
ARLINGTON        N/A     77  72  84 E9        30.07F
GRAND PRAIRIE  SUNNY     75  70  83 E8        30.08F
MESQUITE       LGT RAIN  73  72  94 CALM      30.09F
LANCASTER      LGT RAIN  74  71  88 CALM      30.10S
$$

TXZ091>094-102>105-117-120-121-131>134-301600-
NORTH CENTRAL TEXAS

CITY           SKY/WX    TMP DP  RH WIND       PRES   REMARKS
SHRMAN/DENISON RAIN      72  69  90 SE6       30.10S
GAINESVILLE    DRIZZLE   71  70  96 E9        30.09F
BOWIE          DRIZZLE   70  70  98 SE5       30.06F
BRIDGEPORT     CLOUDY    72  71  96 E3        30.08R
DECATUR        CLOUDY    71  70  97 E7        30.08S
DENTON         LGT RAIN  74  72  93 SE6       30.07S
MCKINNEY       CLOUDY    73  71  93 SE7       30.08F
GREENVILLE     LGT RAIN  73  68  83 SE3       30.11S
ROCKWALL       LGT RAIN  73  71  94 SE5       30.09S
TERRELL        LGT RAIN  77  71  82 SE6       30.10S
WAXAHACHIE     LGT RAIN  74  72  93 E5        30.10S
CLEBURNE       PTSUNNY   79  73  83 SE8       30.08S
GRANBURY       PTSUNNY   82  69  64 SE7       30.05S
$$

TXZ083>090-098>101-113>116-127>130-139>142-154-155-301600-
WESTERN NORTH TEXAS

CITY           SKY/WX    TMP DP  RH WIND       PRES   REMARKS
WICHITA FALLS  LGT RAIN  71  69  93 SE15      30.02F
WF-KICKAPOO    CLOUDY    72  69  91 SE12      30.04S
VERNON         CLOUDY    70  67  92 SE14      30.02F
ABILENE        CLOUDY    80  65  59 S10       30.04R
ABILENE-DYESS  CLOUDY    79  66  63 S10       30.03R
BRECKENRIDGE   PTSUNNY   87  58  36 S15       30.02F HAZE
GRAHAM         CLOUDY    79  67  68 E6        30.02F
MINERAL WELLS  PTSUNNY   80  69  69 SE14      30.03S
STEPHENVILLE   CLOUDY    81  62  51 S13       30.08S
COMANCHE       CLOUDY    83  57  41 S12       30.05F
BROWNWOOD      PTSUNNY   81  59  47 S12       30.05S
COLEMAN        MOSUNNY   82  57  42 S14       30.05F
BRADY          SUNNY     84  57  39 S8        30.06S
$$

TXZ143>147-156>162-174-175-301600-
CENTRAL TEXAS

CITY           SKY/WX    TMP DP  RH WIND       PRES   REMARKS
WACO           CLOUDY    81  70  69 S10       30.06R
WACO-TSTC      PTSUNNY   81  72  74 S8        30.06R
WACO-MCGREGOR  CLOUDY    81  68  65 S9        30.08R
HILLSBORO      LGT RAIN  80  70  70 SE9       30.07S
CORSICANA      MOSUNNY   81  71  71 SE7       30.09R
MEXIA          MOSUNNY   82  72  71 SE8       30.06S
CAMERON        PTSUNNY   82  74  77 S9        30.06S
TEMPLE         CLOUDY    79  70  73 S13       30.06S
KILLEEN        PTSUNNY   79  70  73 S9        30.06S
KILLEEN-SKYLRK PTSUNNY   79  66  65 SE7       30.06S
FORT HOOD      PTSUNNY   80  71  74 SE6       30.06S
GATESVILLE     CLOUDY    81  64  57 S7        30.08S
HAMILTON       CLOUDY    80  62  53 S10G20    30.06F
LAMPASAS       MOSUNNY   79  71  76 S3        30.05F
$$

TXZ095>097-106>112-122>126-135>138-148>153-164>167-301600-
EAST TEXAS

CITY           SKY/WX    TMP DP  RH WIND       PRES   REMARKS
PARIS          CLOUDY    73  64  73 S7        30.11F
SULPHUR SPRNGS CLOUDY    75  66  72 S9        30.12S
CLARKSVILLE    CLOUDY    76  65  69 SE7       30.11S
MOUNT PLEASANT CLOUDY    74  65  74 S3        30.13S
GILMER         PTSUNNY   75  68  78 S3        30.13R
MINEOLA        CLOUDY    73  70  88 SE5       30.11S
TYLER          CLOUDY    76  67  73 SE8       30.10R
LONGVIEW       MOSUNNY   78  65  63 SE7       30.10S
MARSHALL       PTSUNNY   78  67  69 CALM      30.13S
ATHENS         CLOUDY    73  70  88 E3        30.08R
JACKSONVILLE   CLOUDY    77  69  75 SE7       30.12R
HENDERSON      PTSUNNY   77  66  68 SE8       30.12S
NACOGDOCHES    MOSUNNY   79  68  69 SE9       30.10S
LUFKIN         MOSUNNY   82  69  64 SE8       30.10R
$$

SUPPLEMENTAL OBSERVATIONS (CENTRAL)

CITY           SKY/WX    TMP DP  RH WIND       PRES   REMARKS
$$

SUPPLEMENTAL OBSERVATIONS (WEST)

CITY           SKY/WX    TMP DP  RH WIND       PRES   REMARKS
$$

SUPPLEMENTAL OBSERVATIONS (EAST)

CITY           SKY/WX    TMP DP  RH WIND       PRES   REMARKS
$$

SUPPLEMENTAL OBSERVATIONS ARE A COLLECTION OF AUTOMATED INSTRUMENTS
THAT ARE MAINTAINED BY A VARIETY OF FEDERAL AND STATE AGENCIES.
CERTAIN ELEMENTS...SUCH AS HUMIDITY VALUES AND SUSTAINED WIND
SPEEDS...MAY BE APPROXIMATED.